Location: Newark
(21.1200°N, 73.4000°E)
Time: 15:00:52
(UTC+00:00)

Explorer 11/Cluster Stage 4 - Pass Details

Date: 26 January 2020
Orbit: 467 x 1259 km, 28.8° (Epoch: 26 February)

Event Time Altitude Azimuth Distance (km) Brightness Sun altitude
Rises 11:52:42 0° 289° (WNW) 4,134 11.0 12.0°
Reaches altitude 10° 11:55:51 10° 294° (WNW) 3,103 10.3 11.4°
Maximum altitude 12:03:22 52° 9° (N) 1,283 7.6 9.8°
Drops below altitude 10° 12:09:37 10° 85° (E) 2,593 8.7 8.4°
Sets 12:12:02 0° 90° (E) 3,412 9.3 7.9°
